Home   Weather   Houston   Past weeks

Flag for USA Past Weather in Houston, Texas, USA — Yesterday and Last 2 Weeks

Now
58 °F

Light rain. Overcast.


Feels Like: 54 °F
Forecast: 59 / 69 °F
Wind: 17 mph from East

Location: Houston Hobby Airport

Current Time: Dec 3, 2016 at 1:09:50 am

Latest Report: Dec 3, 2016 at 12:53 am


Visibility: 9 mi

Pressure: 29.98 "Hg

Humidity: 81%

Dew Point: 52 °F

Location of HoustonLocation

Past Weather in Houston — Graph

°F

Houston Temperature Yesterday

Maximum temperature yesterday: 65 °F (at 10:53 am)
Minimum temperature yesterday: 55 °F (at 8:53 pm)
Average temperature yesterday: 59 °F

High & Low Weather Summary for the Past Weeks

 TemperatureHumidityPressure
High85 °F (Nov 29, 1:53 pm)100% (Nov 28, 11:53 pm)30.54 "Hg (Nov 28, 11:53 pm)
Low40 °F (Nov 20, 5:53 am)22% (Nov 30, 3:53 pm)29.52 "Hg (Nov 28, 2:53 pm)
Average64 °F68%30.09 "Hg
* Reported Nov 17 11:53 pm — Dec 2 11:53 pm, Houston, Weather by CustomWeather, © 2016

Note: Actual official high and low records may vary slightly from our data, if they occured in-between our weather recording intervals... More about our weather records

Advertising

Houston Weather History for the Previous 24 Hours

Scroll right to see more
 ConditionsComfort  
Time TempWeatherWind HumidityBarometerVisibility
11:53 pm
Fri, Dec 2
58 °FOvercast.17 mph78%30.00 "Hg10 mi
10:53 pm57 °FOvercast.13 mph74%30.03 "Hg10 mi
9:53 pm56 °FOvercast.15 mph75%30.03 "Hg10 mi
8:53 pm55 °FOvercast.15 mph83%30.04 "Hg10 mi
7:53 pm56 °FOvercast.14 mph84%30.06 "Hg10 mi
6:53 pm57 °FOvercast.17 mph83%30.04 "Hg10 mi
5:53 pm58 °FLight rain. Mostly cloudy.15 mph84%30.04 "Hg8 mi
4:53 pm60 °FMostly cloudy.12 mph80%30.04 "Hg10 mi
3:53 pm62 °FMostly cloudy.16 mph70%30.03 "Hg10 mi
2:53 pm64 °FOvercast.16 mph68%30.04 "Hg10 mi
1:53 pm64 °FOvercast.14 mph63%30.05 "Hg10 mi
12:53 pm64 °FOvercast.13 mph63%30.08 "Hg10 mi
11:53 am64 °FMostly cloudy.9 mph65%30.10 "Hg10 mi
10:53 am65 °FMostly cloudy.13 mph63%30.11 "Hg10 mi
9:53 am63 °FMostly cloudy.15 mph65%30.11 "Hg10 mi
8:53 am61 °FBroken clouds.12 mph67%30.13 "Hg10 mi
7:53 am59 °FPartly sunny.10 mph67%30.12 "Hg10 mi
6:53 am58 °FPassing clouds.9 mph67%30.11 "Hg10 mi
5:53 am58 °FPassing clouds.9 mph67%30.10 "Hg10 mi
4:53 am56 °FPassing clouds.7 mph72%30.09 "Hg10 mi
3:53 am57 °FOvercast.7 mph69%30.09 "Hg10 mi
2:53 am56 °FPassing clouds.7 mph70%30.09 "Hg10 mi
1:53 am57 °FPassing clouds.6 mph67%30.09 "Hg10 mi
Weather by CustomWeather, © 2016

See weather overviewHow to use our weather pages